This demonstration page uses our WeatherBlox Daily Observations layout. Learn more.

38.88101, -77.10428

Hourly Observations for June 14, 2019

Temp ( °F °C ) Dew Point ( °F °C ) Humidity (%) Winds ( mph kmh ) Pressure ( in mb ) Visibility ( mi km ) Precip ( " mm )
12:52 am 00:52 Mostly Clear 62 16.7 51 10.6 67 67 W 6 9 29.88 1012 10 16.0934 0 0
1:52 am 01:52 Clear 60 15.6 51 10.6 72 72 SW 6 9 29.88 1012 10 16.0934 0 0
2:52 am 02:52 Clear 59 15 49 9.4 69 69 SSW 7 11 29.89 1012 10 16.0934 0 0
3:52 am 03:52 Mostly Clear 58 14.4 48 8.9 70 70 SSW 6 9 29.9 1013 10 16.0934 0 0
4:52 am 04:52 Partly Cloudy 57 13.9 48 8.9 72 72 SW 8 13 29.92 1013 10 16.0934 0 0
5:52 am 05:52 Mostly Sunny 57 13.9 47 8.3 69 69 SSW 7 11 29.95 1014 10 16.0934 0 0
6:52 am 06:52 Mostly Sunny 59 15 49 9.4 69 69 S 6 9 29.97 1015 10 16.0934 0 0
7:52 am 07:52 Mostly Sunny 63 17.2 47 8.3 56 56 W 15 24 29.99 1016 10 16.0934 0 0
8:52 am 08:52 Mostly Cloudy 65 18.3 48 8.9 54 54 WNW 16 26 30.02 1017 10 16.0934 0 0
9:52 am 09:52 Mostly Cloudy 67 19.4 48 8.9 51 51 WNW 14 22 30.04 1017 10 16.0934 0 0
10:52 am 10:52 Mostly Cloudy 68 20 47 8.3 47 47 WNW 22 35 30.07 1018 10 16.0934 0 0
11:52 am 11:52 Mostly Cloudy 69 20.6 47 8.3 45 45 NW 24 39 30.08 1019 10 16.0934 0 0
12:52 pm 12:52 Partly Cloudy 71 21.7 46 7.8 41 41 W 14 22 30.09 1019 10 16.0934 0 0
1:52 pm 13:52 Mostly Sunny 74 23.3 45 7.2 36 36 WNW 16 26 30.07 1018 10 16.0934 0 0
2:52 pm 14:52 Mostly Sunny 75 23.9 44 6.7 33 33 NW 16 26 30.07 1018 10 16.0934 0 0
3:52 pm 15:52 Mostly Sunny 77 25 44 6.7 31 31 W 15 24 30.06 1018 10 16.0934 0 0
4:52 pm 16:52 Mostly Sunny 79 26.1 46 7.8 31 31 NW 14 22 30.06 1018 10 16.0934 0 0
5:52 pm 17:52 Partly Cloudy 78 25.6 43 6.1 29 29 WNW 15 24 30.07 1018 10 16.0934 0 0
6:52 pm 18:52 Mostly Sunny 77 25 43 6.1 30 30 WNW 13 20 30.07 1018 10 16.0934 0 0
7:52 pm 19:52 Partly Cloudy 75 23.9 44 6.7 33 33 WSW 8 13 30.08 1019 10 16.0934 0 0
8:52 pm 20:52 Mostly Clear 73 22.8 44 6.7 35 35 W 6 9 30.09 1019 10 16.0934 0 0
9:52 pm 21:52 Mostly Clear 71 21.7 46 7.8 41 41 SW 5 7 30.11 1020 10 16.0934 0 0
10:52 pm 22:52 Mostly Clear 67 19.4 53 11.7 61 61 SSW 7 11 30.14 1021 10 16.0934 0 0
11:52 pm 23:52 Partly Cloudy 67 19.4 51 10.6 57 57 SSW 3 6 30.14 1021 10 16.0934 0 0

Powered by AerisWeather